Location: Unspecified
(42.3650°N, 71.1030°W)
Time: 10:11:27
(UTC+00:00)

CZ-6A DEB - Visible Passes

Search period start: 06 October 2024 00:00
Search period end: 16 October 2024 00:00
Orbit: 681 x 753 km, 98.8° (Epoch: 04 October)

Date Brightness Start Highest point End Pass type
(mag) Time Alt. Az. Time Alt. Az. Time Alt. Az.
06 Oct ? 00:19:50 46° SSE 00:21:16 87° WSW 00:26:02 10° NNW visible
06 Oct ? 23:28:31 21° ESE 23:30:35 30° ENE 23:34:41 10° N visible
07 Oct ? 01:07:42 28° WSW 01:08:29 29° W 01:12:37 10° NW visible
07 Oct ? 22:39:20 10° ENE 22:40:11 10° ENE 22:41:03 10° NE visible
08 Oct ? 00:16:16 54° SSE 00:17:19 85° ENE 00:22:06 10° NNW visible
08 Oct ? 23:24:43 22° E 23:26:27 27° ENE 23:30:27 10° N visible
09 Oct ? 01:03:53 32° WSW 01:04:17 33° W 01:08:33 10° NNW visible
10 Oct ? 00:12:14 62° SE 00:12:56 76° ENE 00:17:42 10° N visible
10 Oct ? 01:51:23 11° W 01:51:27 11° W 01:52:52 10° WNW visible
10 Oct ? 23:20:27 21° E 23:21:53 25° ENE 23:25:44 10° N visible
11 Oct ? 00:59:37 37° W 00:59:37 37° W 01:04:02 10° NNW visible
12 Oct ? 00:07:43 64° ESE 00:08:06 67° ENE 00:12:51 10° N visible
12 Oct ? 01:46:52 13° W 01:46:52 13° W 01:48:40 10° WNW visible
12 Oct ? 23:15:44 20° E 23:16:53 22° ENE 23:20:32 10° NNE visible
13 Oct ? 00:54:52 41° W 00:54:52 41° W 00:59:03 10° NNW visible
14 Oct ? 00:02:46 59° ENE 00:02:49 59° ENE 00:07:32 10° N visible
14 Oct ? 01:41:53 14° W 01:41:53 14° W 01:43:50 10° NW visible
14 Oct ? 23:10:33 19° ENE 23:11:26 20° ENE 23:14:51 10° NNE visible
15 Oct ? 00:49:40 44° WNW 00:49:40 44° WNW 00:53:36 10° NNW visible
